Location: Freiburg+im+Breisgau
(48.0359°N, 7.8195°E)
Time: 04:46:26
(UTC+01:00)

ISS - Pass Details

Date: 10 January 2018
Orbit: 402 x 407 km, 51.6° (Epoch: 18 January)

Event Time Altitude Azimuth Distance (km) Brightness Sun altitude
Exits shadow 06:31:22 47° 309° (NW) 551 -3.6 -16.9°
Maximum altitude 06:32:10 73° 20° (NNE) 430 -3.8 -16.8°
Drops below altitude 10° 06:35:27 10° 105° (ESE) 1,466 0.4 -16.3°
Sets 06:37:32 0° 108° (ESE) 2,325 1.9 -15.9°
